KLM895 EHAM-ZSPD

Flight info

Callsign KLM895
Flight time N/A
Altitude 37000
Route ANDIK N873 BAVTA DCT NEREN DCT BALTI DCT RATMU DCT INLOG/K0907F370 T73 MIGTU P997 OBIBA P989 DIKEP L870 HMN B228 TODES R497 KUMOD N869 RO R497 SERNA/K0902S1130 Y520 POLHO W33 NUVPU W52 MUDAM G212 SOTMU W98 ELKUR W40 YQG W142 DALIM A593 DPX A470 DALNU W166 ZJ W167 SASAN R343 EKIMU
Aircraft B789/H-SDE1E2E3FGHIJ2J3J4J5M1RWXY/LB1D1

Departure

Time 2026-04-17 13:23
Airport Amsterdam Airport Schiphol (EHAM)

Arrival

Time N/A
Airport Shanghai Pudong International Airport (ZSPD)
Time Latitude Longitude Altitude Speed Heading
2026-04-17 12:48 52.31318 4.76671 4 ft 0 kts 123°
2026-04-17 13:09 52.31324 4.76656 5 ft 3 kts 123°
2026-04-17 13:09 52.31338 4.76619 6 ft 4 kts 120°
2026-04-17 13:09 52.31350 4.76580 5 ft 4 kts 105°
2026-04-17 13:10 52.31351 4.76543 6 ft 4 kts 46°
2026-04-17 13:10 52.31350 4.76540 6 ft 3 kts 34°
2026-04-17 13:10 52.31369 4.76560 6 ft 1 kts 33°
2026-04-17 13:14 52.31369 4.76561 6 ft 0 kts 33°
2026-04-17 13:15 52.31372 4.76563 5 ft 1 kts 32°
2026-04-17 13:15 52.31384 4.76576 5 ft 3 kts 33°
2026-04-17 13:15 52.31405 4.76599 4 ft 4 kts 34°
2026-04-17 13:15 52.31435 4.76633 4 ft 6 kts 36°
2026-04-17 13:16 52.31462 4.76685 4 ft 6 kts 65°
2026-04-17 13:16 52.31473 4.76761 4 ft 8 kts 79°
2026-04-17 13:16 52.31479 4.76855 4 ft 9 kts 86°
2026-04-17 13:16 52.31482 4.76966 4 ft 10 kts 88°
2026-04-17 13:17 52.31483 4.77092 4 ft 12 kts 95°
2026-04-17 13:17 52.31449 4.77212 4 ft 12 kts 126°
2026-04-17 13:17 52.31393 4.77322 4 ft 13 kts 131°
2026-04-17 13:17 52.31329 4.77436 4 ft 14 kts 135°
2026-04-17 13:18 52.31242 4.77497 4 ft 14 kts 175°
2026-04-17 13:18 52.31144 4.77493 4 ft 14 kts 182°
2026-04-17 13:18 52.31042 4.77482 4 ft 15 kts 184°
2026-04-17 13:18 52.30940 4.77471 4 ft 14 kts 184°
2026-04-17 13:19 52.30847 4.77462 4 ft 13 kts 183°
2026-04-17 13:19 52.30759 4.77454 4 ft 12 kts 181°
2026-04-17 13:19 52.30678 4.77463 4 ft 11 kts 166°
2026-04-17 13:19 52.30606 4.77509 4 ft 11 kts 154°
2026-04-17 13:20 52.30546 4.77560 4 ft 6 kts 150°
2026-04-17 13:20 52.30521 4.77581 4 ft 0 kts 152°
2026-04-17 13:20 52.30521 4.77582 4 ft 0 kts 152°
2026-04-17 13:20 52.30514 4.77587 4 ft 2 kts 152°
2026-04-17 13:21 52.30497 4.77602 4 ft 4 kts 153°
2026-04-17 13:21 52.30471 4.77622 4 ft 4 kts 159°
2026-04-17 13:21 52.30441 4.77625 4 ft 5 kts 186°
2026-04-17 13:21 52.30407 4.77601 4 ft 6 kts 217°
2026-04-17 13:22 52.30380 4.77547 3 ft 0 kts 236°
2026-04-17 13:22 52.30379 4.77544 3 ft 0 kts 236°
2026-04-17 13:22 52.30368 4.77518 3 ft 14 kts 236°
2026-04-17 13:22 52.30210 4.77101 2 ft 73 kts 239°
2026-04-17 13:23 52.29831 4.76103 1 ft 131 kts 237°
2026-04-17 13:23 52.29259 4.74623 10 ft 175 kts 238°
2026-04-17 13:23 52.28629 4.72887 528 ft 169 kts 239°
2026-04-17 13:23 52.27958 4.71157 756 ft 197 kts 236°
2026-04-17 13:24 52.27157 4.69233 1454 ft 204 kts 232°
2026-04-17 13:24 52.25997 4.67896 2235 ft 208 kts 200°
2026-04-17 13:24 52.24565 4.67649 3155 ft 211 kts 173°
2026-04-17 13:24 52.23221 4.68636 4010 ft 219 kts 143°
2026-04-17 13:25 52.22342 4.70700 4845 ft 230 kts 114°
2026-04-17 13:25 52.21809 4.73170 5616 ft 231 kts 117°
2026-04-17 13:25 52.21164 4.75591 6411 ft 233 kts 118°
2026-04-17 13:25 52.20365 4.77909 7002 ft 241 kts 129°
2026-04-17 13:26 52.19431 4.80369 7181 ft 269 kts 122°
2026-04-17 13:26 52.18605 4.83153 7797 ft 279 kts 109°
2026-04-17 13:26 52.18477 4.86401 8587 ft 290 kts 83°
2026-04-17 13:26 52.19218 4.89442 9319 ft 300 kts 55°
2026-04-17 13:27 52.20694 4.91787 10078 ft 304 kts 36°
2026-04-17 13:27 52.22395 4.94054 10346 ft 329 kts 40°
2026-04-17 13:27 52.24179 4.96643 10509 ft 357 kts 41°
2026-04-17 13:27 52.26104 4.99436 10650 ft 382 kts 40°
2026-04-17 13:28 52.28134 5.02290 11415 ft 385 kts 40°
2026-04-17 13:28 52.30179 5.05163 12141 ft 391 kts 40°
2026-04-17 13:28 52.32235 5.08095 12893 ft 395 kts 40°
2026-04-17 13:28 52.34315 5.11074 13632 ft 400 kts 40°
2026-04-17 13:29 52.36429 5.14083 14321 ft 405 kts 40°
2026-04-17 13:29 52.38571 5.17129 14957 ft 409 kts 40°
2026-04-17 13:29 52.40717 5.20204 15604 ft 414 kts 40°
2026-04-17 13:29 52.42891 5.23318 16249 ft 418 kts 40°
2026-04-17 13:30 52.45098 5.26477 16872 ft 422 kts 40°
2026-04-17 13:30 52.47325 5.29671 17488 ft 427 kts 40°
2026-04-17 13:30 52.49574 5.32905 18098 ft 431 kts 40°
2026-04-17 13:30 52.51841 5.36170 18671 ft 435 kts 40°
2026-04-17 13:31 52.54123 5.39457 19198 ft 439 kts 39°
2026-04-17 13:31 52.56395 5.42735 19728 ft 442 kts 39°
2026-04-17 13:31 52.58717 5.46092 20235 ft 445 kts 39°
2026-04-17 13:31 52.61058 5.49481 20718 ft 449 kts 39°
2026-04-17 13:32 52.63409 5.52888 21220 ft 452 kts 39°
2026-04-17 13:32 52.65775 5.56324 21752 ft 454 kts 39°
2026-04-17 13:32 52.68150 5.59777 22217 ft 458 kts 39°
2026-04-17 13:32 52.70553 5.63277 22656 ft 461 kts 39°
2026-04-17 13:33 52.72959 5.66786 23095 ft 464 kts 39°
2026-04-17 13:33 52.75391 5.70338 23516 ft 468 kts 39°
2026-04-17 13:33 52.77830 5.73909 23911 ft 471 kts 39°
2026-04-17 13:33 52.80293 5.77515 24282 ft 473 kts 39°
2026-04-17 13:34 52.82759 5.81132 24652 ft 475 kts 39°
2026-04-17 13:34 52.85230 5.84768 25016 ft 477 kts 39°
2026-04-17 13:34 52.87716 5.88429 25367 ft 479 kts 39°
2026-04-17 13:34 52.90205 5.92097 25698 ft 481 kts 39°
2026-04-17 13:35 52.92707 5.95793 26046 ft 483 kts 39°
2026-04-17 13:35 52.95221 5.99513 26355 ft 485 kts 39°
2026-04-17 13:35 52.97777 6.03172 26646 ft 485 kts 33°
2026-04-17 13:35 53.00631 6.06110 26934 ft 482 kts 25°
2026-04-17 13:36 53.03623 6.08623 27241 ft 483 kts 22°
2026-04-17 13:36 53.06677 6.10966 27540 ft 484 kts 21°
2026-04-17 13:36 53.09732 6.13338 27919 ft 485 kts 22°
2026-04-17 13:36 53.12767 6.15838 28207 ft 487 kts 23°
2026-04-17 13:37 53.15804 6.18350 28482 ft 488 kts 22°
2026-04-17 13:37 53.18875 6.20808 28758 ft 490 kts 21°
2026-04-17 13:37 53.21911 6.23223 29042 ft 491 kts 22°
2026-04-17 13:37 53.24997 6.25734 29294 ft 493 kts 22°
2026-04-17 13:38 53.28073 6.28261 29548 ft 495 kts 22°
2026-04-17 13:38 53.31176 6.30782 29803 ft 496 kts 22°
2026-04-17 13:38 53.34301 6.33311 30051 ft 498 kts 22°
2026-04-17 13:38 53.37426 6.35861 30282 ft 500 kts 22°
2026-04-17 13:39 53.40548 6.38424 30500 ft 501 kts 22°
2026-04-17 13:39 53.43687 6.40996 30703 ft 502 kts 22°
2026-04-17 13:39 53.46825 6.43563 30906 ft 503 kts 22°
2026-04-17 13:39 53.49973 6.46147 31103 ft 504 kts 22°
2026-04-17 13:40 53.53129 6.48748 31294 ft 505 kts 22°
2026-04-17 13:40 53.56283 6.51350 31496 ft 506 kts 22°
2026-04-17 13:40 53.59448 6.53962 31722 ft 506 kts 21°
2026-04-17 13:40 53.62605 6.56571 31999 ft 505 kts 21°
2026-04-17 13:41 53.65756 6.59183 32271 ft 504 kts 21°
2026-04-17 13:41 53.68901 6.61793 32549 ft 503 kts 21°
2026-04-17 13:41 53.72036 6.64398 32816 ft 502 kts 21°
2026-04-17 13:41 53.75164 6.67003 33081 ft 501 kts 21°
2026-04-17 13:42 53.78279 6.69601 33356 ft 500 kts 21°
2026-04-17 13:42 53.81403 6.72186 33615 ft 498 kts 20°
2026-04-17 13:42 53.84542 6.74666 33861 ft 497 kts 20°
2026-04-17 13:42 53.87634 6.77239 34125 ft 497 kts 22°
2026-04-17 13:43 53.90716 6.79934 34358 ft 496 kts 22°
2026-04-17 13:43 53.93798 6.82574 34559 ft 495 kts 21°
2026-04-17 13:43 53.96887 6.85133 34774 ft 494 kts 20°
2026-04-17 13:43 53.98930 6.86837 35014 ft 491 kts 21°
2026-04-17 13:44 54.01975 6.89436 35246 ft 490 kts 21°
2026-04-17 13:44 54.06003 6.92893 35494 ft 489 kts 21°
2026-04-17 13:44 54.09060 6.95484 35618 ft 490 kts 21°
2026-04-17 13:44 54.12110 6.98071 35785 ft 490 kts 21°
2026-04-17 13:45 54.14166 6.99831 35911 ft 490 kts 21°
2026-04-17 13:45 54.17205 7.02444 36088 ft 489 kts 21°
2026-04-17 13:45 54.20245 7.05051 36256 ft 489 kts 21°
2026-04-17 13:45 54.23320 7.07683 36423 ft 489 kts 21°
2026-04-17 13:46 54.26333 7.10273 36585 ft 489 kts 21°
2026-04-17 13:46 54.29368 7.12891 36780 ft 488 kts 21°
2026-04-17 13:46 54.35444 7.18136 37007 ft 489 kts 21°
2026-04-17 13:47 54.38449 7.20738 37161 ft 489 kts 21°
2026-04-17 13:47 54.41491 7.23376 37233 ft 490 kts 21°
2026-04-17 13:47 54.47589 7.28679 37229 ft 489 kts 21°
2026-04-17 13:48 54.53643 7.33958 37252 ft 487 kts 21°
2026-04-17 13:48 54.59700 7.39258 37229 ft 489 kts 22°
2026-04-17 13:49 54.65762 7.44584 37241 ft 490 kts 22°
2026-04-17 13:49 54.71358 7.51475 37278 ft 503 kts 43°
2026-04-17 13:50 54.75568 7.61273 37250 ft 509 kts 52°
2026-04-17 13:50 54.79450 7.71469 37249 ft 506 kts 53°
2026-04-17 13:51 54.83333 7.81654 37249 ft 506 kts 52°
2026-04-17 13:51 54.87211 7.91874 37254 ft 507 kts 53°
2026-04-17 13:52 54.91051 8.02053 37250 ft 507 kts 52°
2026-04-17 13:52 54.94919 8.12326 37249 ft 508 kts 53°
2026-04-17 13:53 54.98778 8.22636 37280 ft 508 kts 52°
2026-04-17 13:53 55.02635 8.32972 37247 ft 508 kts 53°
2026-04-17 13:54 55.08393 8.48489 37246 ft 508 kts 53°
2026-04-17 13:55 55.14129 8.64052 37249 ft 507 kts 53°
2026-04-17 13:56 55.21739 8.84841 37260 ft 508 kts 53°
2026-04-17 13:56 55.25528 8.95261 37263 ft 505 kts 53°
2026-04-17 13:57 55.29271 9.05596 37268 ft 505 kts 53°
2026-04-17 13:58 55.34924 9.21292 37269 ft 505 kts 53°
2026-04-17 13:58 55.40513 9.36906 37274 ft 506 kts 54°
2026-04-17 13:59 55.46116 9.52660 37263 ft 506 kts 54°
2026-04-17 14:00 55.49830 9.63163 37270 ft 504 kts 54°
2026-04-17 14:00 55.53530 9.73666 37268 ft 503 kts 54°
2026-04-17 14:01 55.57213 9.84170 37266 ft 503 kts 54°
2026-04-17 14:01 55.60894 9.94709 37271 ft 504 kts 54°
2026-04-17 14:02 55.64577 10.05303 37274 ft 506 kts 54°
2026-04-17 14:02 55.68258 10.15937 37280 ft 506 kts 54°
2026-04-17 14:03 55.71902 10.26516 37278 ft 501 kts 54°
2026-04-17 14:03 55.75534 10.37096 37278 ft 502 kts 54°
2026-04-17 14:04 55.79154 10.47692 37279 ft 502 kts 54°
2026-04-17 14:04 55.82750 10.58262 37280 ft 503 kts 55°
2026-04-17 14:05 55.86386 10.69002 37283 ft 504 kts 55°
2026-04-17 14:05 55.89973 10.79639 37287 ft 504 kts 55°
2026-04-17 14:06 55.93600 10.90445 37291 ft 505 kts 55°
2026-04-17 14:06 55.97201 11.01221 37296 ft 505 kts 55°
2026-04-17 14:07 56.00774 11.11962 37289 ft 506 kts 55°
2026-04-17 14:07 56.04352 11.22765 37291 ft 504 kts 56°
2026-04-17 14:08 56.07918 11.33580 37287 ft 503 kts 56°
2026-04-17 14:08 56.11465 11.44387 37300 ft 503 kts 56°
2026-04-17 14:09 56.14991 11.55180 37280 ft 500 kts 56°
2026-04-17 14:09 56.18501 11.65966 37281 ft 500 kts 56°
2026-04-17 14:10 56.21979 11.76711 37291 ft 501 kts 56°
2026-04-17 14:10 56.25469 11.87534 37286 ft 501 kts 56°
2026-04-17 14:11 56.28954 11.98393 37291 ft 501 kts 56°